Preview of NWS' New Version of Forecast
This preview is not operational and should not be used for support decisions.

Regional Weather Roundup (RWR)

Issued by National Weather Service (NWS)

                            
000
ASUS43 KTOP 190959
RWRKS 

WEATHER ROUNDUP FOR KANSAS
NATIONAL WEATHER SERVICE GOODLAND KS
500 AM CDT FRI APR 19 2019

NOTE:  "FAIR" INDICATES FEW OR NO CLOUDS BELOW 12,000 FEET WITH NO
SIGNIFICANT WEATHER AND/OR OBSTRUCTIONS TO VISIBILITY.

KSZ001>006-013>018-027>032-041>047-191100-
NORTHWEST KANSAS
  
CITY           SKY/WX    TMP DP  RH WIND       PRES   REMARKS
GOODLAND       FAIR      31  27  85 W8        30.18R                  
HAYS           CLEAR     36  33  89 NW6       30.14R                  
HILL CITY      CLEAR     37  32  82 NW10      30.14S WCI  30          
RUSSELL        CLEAR     35  30  82 NW8       30.11R                  
$$

KSZ061>065-074>080-084>089-191100-
SOUTHWEST KANSAS
  
CITY           SKY/WX    TMP DP  RH WIND       PRES   REMARKS
DODGE CITY     CLEAR     36  30  79 NW8       30.14S                  
GARDEN CITY    PTCLDY    35  30  82 NW13      30.17R WCI  26          
GREAT BEND       N/A     34  32  92 NW8       30.12S                  
LIBERAL        CLEAR     36  30  79 NW9       30.18R                  
$$

KSZ066>073-081>083-090>101-191100-
SOUTHEAST KANSAS
  
CITY           SKY/WX    TMP DP  RH WIND       PRES   REMARKS
CHANUTE        PTCLDY    48  39  71 N10       29.97R                  
COFFEYVILLE    MOCLDY    49  41  74 N13       29.96R                  
HUTCHINSON     CLEAR     41  35  79 NW10      30.08R                  
MEDICINE LODGE   N/A     41  35  79 NW8       30.10R                  
NEWTON         CLEAR     40  36  86 N13       30.06R WCI  32          
PARSONS          N/A     47  40  76 N9        29.97R                  
WICHITA INTL   CLEAR     45  36  70 N13       30.05R                  
WICHITA JABRA  CLEAR     42  37  82 N16       30.04R                  
WINFIELD       CLEAR     44  39  82 N16       30.03R                  
$$

KSZ007>012-019>026-033>040-048>060-102>105-191100-
NORTHEAST KANSAS
  
CITY           SKY/WX    TMP DP  RH WIND       PRES   REMARKS
CONCORDIA        N/A    N/A N/A N/A MISG      30.09R                  
EMPORIA        CLEAR     43  39  86 NW10      30.01R                  
LAWRENCE       CLEAR     44  38  79 NW8       29.99R                  
MANHATTAN      CLEAR     43  36  76 VRB5      30.05R                  
OLATHE IND     CLEAR     43  39  86 NW12      29.97S                  
OLATHE EXE     CLEAR     44  38  79 N12       29.96R                  
SALINA         CLEAR     38  34  85 NW7       30.09R                  
TOPEKA BILLARD CLEAR     45  37  73 NW10      30.01R                  
TOPEKA FORBES  CLEAR     45  37  73 N12       30.00R                  
$$